Location: ??
(34.9170°N, 135.5016°E)
Time: 10:37:57
(UTC+00:00)

X-37B - Pass Details

Date: 31 January 2021
Orbit: 383 x 391 km, 45.0° (Epoch: 27 February)

Event Time Altitude Azimuth Distance (km) Brightness Sun altitude
Rises 10:24:46 0° 295° (WNW) 2,272 5.4 -24.6°
Reaches altitude 10° 10:26:55 10° 287° (WNW) 1,416 4.3 -25.0°
Enters shadow 10:28:45 27° 265° (W) 787 2.8 -25.4°
